{"data":{"norad_id":59512,"intl_designator":"2024-073B","name":"STARLINK-31650","alt_names":[],"object_type":"PAYLOAD","status":"ACTIVE","operator":null,"country":"US","launch_date":"2024-04-17","launch_site_code":"AFETR","launch_vehicle":null,"mission":null,"orbit_class":"UNKNOWN","rcs_meters":null,"size_class":null,"mass_kg":null,"dimensions":null,"purposes":["comms"],"wikipedia_slug":null,"has_3d_model":false,"image_url":null,"decayed_at":null,"tle_current":{"epoch":"2026-09-21T09:15:24.344352Z","epoch_age_seconds":88673,"freshness":"FRESH","line1":"1 59512U 24073B   26264.38569843  .00000228  00000+0  17795-4 0  9998","line2":"2 59512  43.0007 292.9305 0001052 279.5626  80.5107 15.27577425136100","mean_motion":15.27577425,"eccentricity":0.0001052,"inclination_deg":43.0007,"raan_deg":292.9305,"arg_perigee_deg":279.5626,"mean_anomaly_deg":80.5107,"bstar":1.7795e-5,"rev_number":13610,"period_min":94.26690761681,"perigee_km":482.33500893839,"apogee_km":483.77860411528,"semimajor_km":6861.1938065268,"source":"CELESTRAK","updated_at":"2026-09-22T09:00:48.962441Z"}}}